Location: Pcim
(49.7500°N, 19.9670°E)
Time: 19:28:17
(UTC+01:00)

ISS - Visible Passes

Search period start: 24 March 2023 00:00
Search period end: 03 April 2023 01:00
Orbit: 414 x 422 km, 51.6° (Epoch: 24 March)

Date Brightness Start Highest point End Pass type
(mag) Time Alt. Az. Time Alt. Az. Time Alt. Az.
24 Mar -3.4 18:43:11 10° W 18:46:31 64° N 18:49:49 10° ENE visible
24 Mar -2.9 20:20:08 10° WNW 20:22:45 50° WNW 20:22:45 50° WNW visible
25 Mar -3.6 19:32:13 10° WNW 19:35:33 66° N 19:36:46 35° E visible
25 Mar -0.8 21:09:04 10° WNW 21:09:42 15° W 21:09:42 15° W visible
26 Mar -3.4 19:44:14 10° WNW 19:47:34 61° N 19:50:45 11° E visible
26 Mar -3.0 21:21:05 10° WNW 21:23:41 48° W 21:23:41 48° W visible
27 Mar -3.9 20:33:05 10° WNW 20:36:28 88° SSW 20:37:39 37° ESE visible
27 Mar -0.7 22:10:11 10° W 22:10:34 12° W 22:10:34 12° W visible
28 Mar -3.7 19:45:05 10° WNW 19:48:26 75° NNE 19:51:35 11° E visible
28 Mar -2.4 21:21:59 10° W 21:24:31 32° SW 21:24:31 32° SW visible
29 Mar -3.2 20:33:51 10° WNW 20:37:07 49° SSW 20:38:27 29° SSE visible
30 Mar -3.6 19:45:45 10° WNW 19:49:05 69° SSW 19:52:25 10° ESE visible
30 Mar -1.5 21:23:11 10° W 21:25:20 17° SW 21:25:20 17° SW visible
31 Mar -2.0 20:34:41 10° W 20:37:28 24° SW 20:39:19 16° S visible
01 Apr -2.5 19:46:22 10° W 19:49:28 35° SSW 19:52:33 10° SE visible
02 Apr -1.0 20:36:23 10° WSW 20:37:31 11° SW 20:38:38 10° SSW visible
